Location: Grand Rapids
(42.9630°N, 85.6680°W)
Time: 01:58:32
(UTC-04:00)

S-56A Canister/Altair - Pass Details

Date: 04 June 2024
Orbit: 637 x 2489 km, 38.9° (Epoch: 21 June)

Event Time Altitude Azimuth Distance (km) Brightness Sun altitude
Exits shadow 05:44:36 -1° 257° (WSW) 6,155 11.5 -3.9°
Rises 05:44:50 0° 257° (WSW) 6,099 11.5 -3.9°
Reaches altitude 10° 05:48:47 10° 256° (WSW) 5,139 11.1 -3.3°
Maximum altitude 06:03:52 74° 175° (S) 2,387 10.0 -1.0°
Drops below altitude 10° 06:16:03 10° 94° (E) 4,250 12.4 0.9°
Sets 06:18:59 0° 92° (E) 5,029 12.8 1.4°
